EN

Hourly Weather Tomaszew

Today, 15 April, Thursday

Time Temperature Precipitation Wind Pressure Humidity
00:00 -2°C° 0.3 mm 6 mps 757 mmHg 94%
01:00 -2°C° 0.3 mm 6 mps 756 mmHg 96%
02:00 -2°C° 0.5 mm 6 mps 756 mmHg 96%
03:00 -2°C° 0.5 mm 6 mps 756 mmHg 97%
04:00 -2°C° 0.5 mm 6 mps 755 mmHg 97%
05:00 -2°C° 0.6 mm 6 mps 755 mmHg 97%
06:00 -2°C° 0.6 mm 6 mps 755 mmHg 97%
07:00 -1°C° 0.6 mm 6 mps 755 mmHg 97%
08:00 -1°C° 0.7 mm 6 mps 755 mmHg 97%
09:00 -2°C° 0.7 mm 6 mps 755 mmHg 97%
10:00 -1°C° 0.7 mm 5 mps 755 mmHg 97%
11:00 -1°C° 0.7 mm 5 mps 755 mmHg 98%
12:00 -1°C° 0.7 mm 5 mps 755 mmHg 98%
13:00 -1°C° 0.7 mm 5 mps 755 mmHg 98%
14:00 -1°C° 0.5 mm 4 mps 754 mmHg 98%
15:00 -1°C° 0.5 mm 4 mps 754 mmHg 98%
16:00 -1°C° 0.5 mm 4 mps 754 mmHg 98%
17:00 0°C° 0.4 mm 4 mps 754 mmHg 98%
18:00 0°C° 0.4 mm 4 mps 754 mmHg 99%
19:00 +1°C° 0.4 mm 3 mps 754 mmHg 99%
20:00 +2°C° 0.4 mm 3 mps 754 mmHg 99%
21:00 +2°C° 0.4 mm 3 mps 754 mmHg 99%
22:00 +2°C° 0.4 mm 3 mps 754 mmHg 99%
23:00 +1°C° 0.1 mm 4 mps 754 mmHg 98%

Tomorrow, 16 April, Friday

Time Temperature Precipitation Wind Pressure Humidity
00:00 +3°C° 0.1 mm 4 mps 754 mmHg 98%
01:00 +3°C° 0.1 mm 4 mps 754 mmHg 98%
02:00 +3°C° 0.4 mm 4 mps 754 mmHg 97%
03:00 +3°C° 0.4 mm 4 mps 754 mmHg 97%
04:00 +1°C° 0.4 mm 4 mps 754 mmHg 97%
05:00 +1°C° 0.2 mm 4 mps 754 mmHg 97%
06:00 +1°C° 0.2 mm 4 mps 754 mmHg 97%
07:00 +1°C° 0.2 mm 4 mps 754 mmHg 97%
08:00 +1°C° 0.1 mm 4 mps 754 mmHg 97%
09:00 +1°C° 0.1 mm 4 mps 754 mmHg 96%
10:00 +1°C° 0.1 mm 4 mps 754 mmHg 96%
11:00 +1°C° 0.1 mm 4 mps 754 mmHg 96%
12:00 +1°C° 0.1 mm 4 mps 754 mmHg 96%
13:00 +3°C° 0.1 mm 4 mps 754 mmHg 96%
14:00 +3°C° 0.3 mm 4 mps 754 mmHg 96%
15:00 +3°C° 0.3 mm 4 mps 754 mmHg 96%
16:00 +3°C° 0.3 mm 3 mps 754 mmHg 96%
17:00 +3°C° 0.2 mm 3 mps 755 mmHg 96%
18:00 +3°C° 0.2 mm 3 mps 755 mmHg 97%
19:00 +2°C° 0.2 mm 3 mps 755 mmHg 97%
20:00 +2°C° 0 mm 3 mps 755 mmHg 97%
21:00 +3°C° 0 mm 2 mps 755 mmHg 97%
22:00 +3°C° 0 mm 2 mps 755 mmHg 98%
23:00 +3°C° 0 mm 2 mps 755 mmHg 98%

Day after tomorrow, 17 April, Saturday

Time Temperature Precipitation Wind Pressure Humidity
00:00 +3°C° 0 mm 2 mps 755 mmHg 98%
01:00 +4°C° 0 mm 2 mps 755 mmHg 98%
02:00 +4°C° 0 mm 2 mps 755 mmHg 98%
03:00 +4°C° 0 mm 2 mps 755 mmHg 98%
04:00 +3°C° 0 mm 3 mps 755 mmHg 98%
05:00 +3°C° 0.6 mm 3 mps 755 mmHg 98%
06:00 +3°C° 0.6 mm 3 mps 754 mmHg 97%
07:00 +4°C° 0.6 mm 3 mps 754 mmHg 97%
08:00 +4°C° 0.7 mm 3 mps 754 mmHg 97%
09:00 +5°C° 0.7 mm 2 mps 754 mmHg 97%
10:00 +6°C° 0.7 mm 2 mps 755 mmHg 97%
11:00 +7°C° 0.1 mm 2 mps 755 mmHg 95%
12:00 +7°C° 0.1 mm 2 mps 755 mmHg 93%
13:00 +9°C° 0.1 mm 1 mps 755 mmHg 91%
14:00 +9°C° 0.2 mm 2 mps 755 mmHg 88%
15:00 +9°C° 0.2 mm 2 mps 754 mmHg 85%
16:00 +10°C° 0.2 mm 2 mps 754 mmHg 82%
17:00 +9°C° 0.1 mm 2 mps 755 mmHg 85%
18:00 +8°C° 0.1 mm 2 mps 755 mmHg 88%
19:00 +8°C° 0.1 mm 1 mps 755 mmHg 91%
20:00 +8°C° 0 mm 1 mps 755 mmHg 91%
21:00 +7°C° 0 mm 1 mps 755 mmHg 91%
22:00 +7°C° 0 mm 1 mps 755 mmHg 92%
23:00 +6°C° 0.2 mm 2 mps 755 mmHg 92%

18 April, Sunday

Time Temperature Precipitation Wind Pressure Humidity
00:00 +6°C° 0.2 mm 2 mps 755 mmHg 93%
01:00 +6°C° 0.2 mm 2 mps 755 mmHg 93%
02:00 +6°C° 0 mm 2 mps 755 mmHg 94%
03:00 +5°C° 0 mm 2 mps 755 mmHg 94%
04:00 +5°C° 0 mm 2 mps 755 mmHg 95%
05:00 +5°C° 0 mm 2 mps 755 mmHg 95%
06:00 +4°C° 0 mm 3 mps 755 mmHg 94%
07:00 +5°C° 0 mm 3 mps 755 mmHg 94%
08:00 +5°C° 0 mm 3 mps 755 mmHg 91%
09:00 +7°C° 0 mm 3 mps 755 mmHg 89%
10:00 +7°C° 0 mm 3 mps 755 mmHg 87%
11:00 +8°C° 0 mm 3 mps 755 mmHg 80%
12:00 +10°C° 0 mm 3 mps 755 mmHg 74%
13:00 +11°C° 0 mm 3 mps 755 mmHg 67%
14:00 +11°C° 0.1 mm 3 mps 755 mmHg 67%
15:00 +12°C° 0.1 mm 2 mps 755 mmHg 68%
16:00 +12°C° 0.1 mm 2 mps 754 mmHg 68%
17:00 +10°C° 0 mm 2 mps 754 mmHg 73%
18:00 +9°C° 0 mm 2 mps 755 mmHg 77%
19:00 +8°C° 0 mm 3 mps 755 mmHg 82%
20:00 +8°C° 0 mm 3 mps 755 mmHg 83%
21:00 +8°C° 0 mm 3 mps 755 mmHg 84%
22:00 +7°C° 0 mm 3 mps 755 mmHg 84%
23:00 +7°C° 0 mm 2 mps 754 mmHg 85%

19 April, Monday

Time Temperature Precipitation Wind Pressure Humidity
00:00 +7°C° 0 mm 2 mps 754 mmHg 86%
01:00 +7°C° 0 mm 2 mps 754 mmHg 86%
02:00 +7°C° 0 mm 2 mps 754 mmHg 87%
03:00 +7°C° 0 mm 2 mps 754 mmHg 87%
04:00 +7°C° 0 mm 3 mps 754 mmHg 87%
05:00 +7°C° 0.1 mm 3 mps 754 mmHg 86%
06:00 +7°C° 0.1 mm 3 mps 753 mmHg 85%
07:00 +8°C° 0.1 mm 3 mps 753 mmHg 83%
08:00 +7°C° 0.1 mm 4 mps 753 mmHg 82%
09:00 +8°C° 0.1 mm 4 mps 753 mmHg 80%
10:00 +8°C° 0.1 mm 5 mps 753 mmHg 79%
11:00 +8°C° 0.1 mm 5 mps 752 mmHg 80%
12:00 +8°C° 0.1 mm 5 mps 752 mmHg 82%
13:00 +8°C° 0.1 mm 4 mps 752 mmHg 83%
14:00 +8°C° 0.1 mm 4 mps 751 mmHg 84%
15:00 +8°C° 0.1 mm 4 mps 751 mmHg 85%
16:00 +8°C° 0.1 mm 4 mps 751 mmHg 85%
17:00 +9°C° 0.1 mm 3 mps 751 mmHg 87%
18:00 +8°C° 0.1 mm 3 mps 750 mmHg 89%
19:00 +8°C° 0.1 mm 3 mps 750 mmHg 91%
20:00 +8°C° 0.1 mm 3 mps 750 mmHg 92%
21:00 +8°C° 0.1 mm 3 mps 750 mmHg 93%
22:00 +8°C° 0.1 mm 3 mps 749 mmHg 95%
23:00 +8°C° 0.2 mm 3 mps 749 mmHg 95%

20 April, Tuesday

Time Temperature Precipitation Wind Pressure Humidity
00:00 +8°C° 0.2 mm 3 mps 748 mmHg 96%
01:00 +8°C° 0.2 mm 3 mps 748 mmHg 97%
02:00 +8°C° 0.2 mm 3 mps 748 mmHg 97%
03:00 +8°C° 0.2 mm 3 mps 747 mmHg 96%
04:00 +7°C° 0.2 mm 4 mps 747 mmHg 96%
05:00 +7°C° 0.2 mm 4 mps 747 mmHg 96%
06:00 +7°C° 0.2 mm 4 mps 747 mmHg 96%
07:00 +7°C° 0.2 mm 4 mps 746 mmHg 96%
08:00 +7°C° 0.1 mm 4 mps 746 mmHg 94%
09:00 +7°C° 0.1 mm 4 mps 746 mmHg 92%
10:00 +8°C° 0.1 mm 4 mps 746 mmHg 90%
11:00 +8°C° 0.1 mm 4 mps 745 mmHg 88%
12:00 +9°C° 0.1 mm 5 mps 745 mmHg 86%
13:00 +9°C° 0.1 mm 5 mps 745 mmHg 84%
14:00 +9°C° 0.1 mm 5 mps 745 mmHg 84%
15:00 +9°C° 0.1 mm 5 mps 745 mmHg 85%
16:00 +8°C° 0.1 mm 5 mps 744 mmHg 86%
17:00 +8°C° 0 mm 5 mps 744 mmHg 88%
18:00 +8°C° 0 mm 5 mps 744 mmHg 89%
19:00 +7°C° 0 mm 4 mps 744 mmHg 91%
20:00 +7°C° 0 mm 4 mps 744 mmHg 92%
21:00 +7°C° 0 mm 4 mps 744 mmHg 92%
22:00 +6°C° 0 mm 4 mps 744 mmHg 93%
23:00 +6°C° 0 mm 4 mps 744 mmHg 92%
Show more

We Need Your Consent

Meteoprog and our Service Providers may store and access personal data such as cookies, device identifiers or other similar technologies on your device and process such data to personalise content and ads, as well as provide social media features and to analyse the traffic.

  • Store and/or access information on your device

    Cookies, device identifiers or other information can be stored or accessed on your device for the purposes indicated above.

  • Personalised ads and content, ad and content measurement, audience insights, and products development

    Ads and content can be personalised based on a profile. More data can be added to better personalise ads and content. Ad and content performance can be measured. Insights about the audience who saw the ads and content can be derived. Such data can be used to develop or improve user’s experience, systems and software.

By clicking ‘I Agree’ you will allow the use of indicated cookies, device identifiers, web beacons or other similar technologies. Your settings can be changed in the browser on your device.

For certain purposes, legitimate interests may be relied on, rather than consent. You can read more about this in our Privacy and Cookie Policy.